| time (UTC) | temp F | wind direction | speed MPH | gust MPH | rain 1hr in | rain 24hr in | rain mn in | humidity % | barometer mb |
| 20260901191524 | 98 | 288 | 9.0 | 13.0 | 0.00 | 0.00 | 0.00 | 31 | 1012.0 |
| 20260901190023 | 98 | 290 | 8.0 | 22.0 | 0.00 | 0.00 | 0.00 | 29 | 1012.1 |
| 20260901184521 | 96 | 212 | 12.0 | 24.0 | 0.00 | 0.00 | 0.00 | 31 | 1011.9 |
| 20260901183020 | 97 | 182 | 9.0 | 18.0 | 0.00 | 0.00 | 0.00 | 31 | 1012.2 |
| 20260901181522 | 96 | 205 | 9.0 | 21.0 | 0.00 | 0.00 | 0.00 | 33 | 1012.2 |
| 20260901180020 | 97 | 202 | 9.0 | 20.0 | 0.00 | 0.00 | 0.00 | 32 | 1012.3 |
| 20260901174517 | 96 | 272 | 9.0 | 20.0 | 0.00 | 0.00 | 0.00 | 34 | 1012.6 |
| 20260901173016 | 96 | 209 | 10.0 | 15.0 | 0.00 | 0.00 | 0.00 | 35 | 1012.8 |
| 20260901171514 | 95 | 281 | 6.0 | 16.0 | 0.00 | 0.00 | 0.00 | 37 | 1012.8 |
| 20260901170015 | 95 | 277 | 10.0 | 19.0 | 0.00 | 0.00 | 0.00 | 37 | 1013.0 |
| 20260901164511 | 94 | 244 | 11.0 | 18.0 | 0.00 | 0.00 | 0.00 | 37 | 1013.1 |
| 20260901163009 | 94 | 241 | 10.0 | 22.0 | 0.00 | 0.00 | 0.00 | 38 | 1013.2 |
| 20260901161518 | 93 | 238 | 7.0 | 18.0 | 0.00 | 0.00 | 0.00 | 39 | 1013.3 |
| 20260901160006 | 93 | 213 | 9.0 | 16.0 | 0.00 | 0.00 | 0.00 | 41 | 1013.3 |
| 20260901154503 | 92 | 222 | 9.0 | 18.0 | 0.00 | 0.00 | 0.00 | 41 | 1013.2 |
| 20260901153100 | 91 | 192 | 4.0 | 13.0 | 0.00 | 0.00 | 0.00 | 43 | 1013.3 |
| 20260901151556 | 90 | 192 | 9.0 | 15.0 | 0.00 | 0.00 | 0.00 | 43 | 1013.3 |
| 20260901150055 | 88 | 193 | 8.0 | 14.0 | 0.00 | 0.00 | 0.00 | 45 | 1013.4 |
| 20260901144549 | 87 | 217 | 6.0 | 12.0 | 0.00 | 0.00 | 0.00 | 48 | 1013.6 |
| 20260901143045 | 85 | 192 | 4.0 | 9.0 | 0.00 | 0.00 | 0.00 | 51 | 1013.7 |
| 20260901141541 | 83 | 254 | 6.0 | 10.0 | 0.00 | 0.00 | 0.00 | 53 | 1013.7 |
| 20260901140039 | 82 | 209 | 4.0 | 8.0 | 0.00 | 0.00 | 0.00 | 53 | 1013.8 |
| 20260901134556 | 80 | 161 | 3.0 | 7.0 | 0.00 | 0.00 | 0.00 | 56 | 1013.7 |
| 20260901133036 | 79 | 165 | 2.0 | 7.0 | 0.00 | 0.00 | 0.00 | 58 | 1013.7 |
| 20260901131536 | 78 | 202 | 2.0 | 6.0 | 0.00 | 0.00 | 0.00 | 60 | 1014.0 |
| 20260901130035 | 76 | 209 | 0.0 | 5.0 | 0.00 | 0.00 | 0.00 | 62 | 1013.9 |
| 20260901124536 | 74 | 177 | 1.0 | 5.0 | 0.00 | 0.00 | 0.00 | 63 | 1013.8 |
| 20260901123032 | 73 | 177 | 1.0 | 5.0 | 0.00 | 0.00 | 0.00 | 64 | 1013.4 |
| 20260901121530 | 73 | 180 | 0.0 | 2.0 | 0.00 | 0.00 | 0.00 | 65 | 1013.2 |
| 20260901120031 | 72 | 167 | 0.0 | 2.0 | 0.00 | 0.00 | 0.00 | 66 | 1013.0 |
| 20260901114533 | 72 | 170 | 0.0 | 2.0 | 0.00 | 0.00 | 0.00 | 67 | 1012.9 |
| 20260901113044 | 72 | 170 | 0.0 | 2.0 | 0.00 | 0.00 | 0.00 | 66 | 1013.1 |
| 20260901111526 | 73 | 170 | 0.0 | 2.0 | 0.00 | 0.00 | 0.00 | 66 | 1012.9 |
| 20260901110023 | 73 | 169 | 0.0 | 2.0 | 0.00 | 0.00 | 0.00 | 66 | 1012.9 |
| 20260901104522 | 73 | 169 | 0.0 | 2.0 | 0.00 | 0.00 | 0.00 | 65 | 1012.9 |
| 20260901103020 | 74 | 169 | 0.0 | 2.0 | 0.00 | 0.00 | 0.00 | 63 | 1012.7 |
| 20260901101524 | 73 | 169 | 0.0 | 2.0 | 0.00 | 0.00 | 0.00 | 64 | 1012.6 |
| 20260901100015 | 74 | 165 | 0.0 | 2.0 | 0.00 | 0.00 | 0.00 | 64 | 1012.4 |
| 20260901094513 | 74 | 165 | 0.0 | 2.0 | 0.00 | 0.00 | 0.00 | 63 | 1012.3 |
| 20260901093019 | 75 | 183 | 0.0 | 2.0 | 0.00 | 0.00 | 0.00 | 61 | 1012.2 |
| 20260901091511 | 75 | 183 | 0.0 | 2.0 | 0.00 | 0.00 | 0.00 | 61 | 1012.1 |
| 20260901090010 | 76 | 186 | 1.0 | 2.0 | 0.00 | 0.00 | 0.00 | 59 | 1011.9 |
| 20260901084519 | 76 | 204 | 0.0 | 2.0 | 0.00 | 0.00 | 0.00 | 57 | 1012.1 |
| 20260901083005 | 77 | 204 | 0.0 | 2.0 | 0.00 | 0.00 | 0.00 | 57 | 1011.9 |
| 20260901081504 | 77 | 209 | 0.0 | 2.0 | 0.00 | 0.00 | 0.00 | 57 | 1011.7 |
| 20260901080002 | 77 | 183 | 0.0 | 2.0 | 0.00 | 0.00 | 0.00 | 57 | 1011.9 |
| 20260901074605 | 77 | 183 | 0.0 | 2.0 | 0.00 | 0.00 | 0.00 | 57 | 1011.8 |
| 20260901073102 | 78 | 187 | 0.0 | 2.0 | 0.00 | 0.00 | 0.00 | 56 | 1012.0 |
| 20260901071555 | 78 | 194 | 0.0 | 4.0 | 0.00 | 0.00 | 0.00 | 56 | 1011.9 |
| 20260901070100 | 79 | 176 | 1.0 | 4.0 | 0.00 | 0.00 | 0.00 | 55 | 1011.6 |
| 20260901064551 | 79 | 191 | 1.0 | 4.0 | 0.00 | 0.00 | 0.00 | 55 | 1011.8 |
| 20260901063049 | 79 | 198 | 2.0 | 5.0 | 0.00 | 0.00 | 0.00 | 56 | 1012.0 |
| 20260901061549 | 79 | 199 | 0.0 | 4.0 | 0.00 | 0.00 | 0.00 | 56 | 1011.9 |
| 20260901060046 | 80 | 173 | 1.0 | 3.0 | 0.00 | 0.00 | 0.00 | 55 | 1011.8 |
| 20260901054543 | 80 | 183 | 2.0 | 4.0 | 0.00 | 0.00 | 0.00 | 54 | 1011.9 |
| 20260901053103 | 81 | 186 | 2.0 | 5.0 | 0.00 | 0.00 | 0.00 | 54 | 1011.7 |
| 20260901051538 | 81 | 171 | 2.0 | 5.0 | 0.00 | 0.00 | 0.00 | 54 | 1011.7 |
| 20260901050036 | 81 | 171 | 3.0 | 5.0 | 0.00 | 0.00 | 0.00 | 53 | 1011.7 |
| 20260901044552 | 82 | 177 | 3.0 | 6.0 | 0.00 | 0.00 | 0.00 | 53 | 1011.5 |
| 20260901043040 | 82 | 174 | 1.0 | 5.0 | 0.00 | 0.00 | 0.00 | 52 | 1011.7 |
| 20260901041535 | 83 | 183 | 3.0 | 6.0 | 0.00 | 0.00 | 0.00 | 51 | 1011.5 |
| 20260901040033 | 83 | 163 | 2.0 | 6.0 | 0.00 | 0.00 | 0.00 | 50 | 1011.6 |
| 20260901034533 | 84 | 175 | 2.0 | 7.0 | 0.00 | 0.00 | 0.00 | 49 | 1011.2 |
| 20260901033039 | 85 | 212 | 4.0 | 8.0 | 0.00 | 0.00 | 0.00 | 48 | 1011.1 |
| 20260901031535 | 85 | 153 | 5.0 | 9.0 | 0.00 | 0.00 | 0.00 | 47 | 1010.9 |
| 20260901030030 | 86 | 170 | 4.0 | 8.0 | 0.00 | 0.00 | 0.00 | 47 | 1010.6 |
| 20260901024530 | 87 | 184 | 4.0 | 8.0 | 0.00 | 0.00 | 0.00 | 46 | 1010.6 |
| 20260901023032 | 87 | 178 | 4.0 | 9.0 | 0.00 | 0.00 | 0.00 | 45 | 1010.3 |
| 20260901021536 | 88 | 144 | 5.0 | 7.0 | 0.00 | 0.00 | 0.00 | 44 | 1010.0 |
| 20260901020049 | 89 | 163 | 6.0 | 10.0 | 0.00 | 0.00 | 0.00 | 43 | 1009.7 |
| 20260901014527 | 89 | 144 | 5.0 | 8.0 | 0.00 | 0.00 | 0.00 | 42 | 1009.6 |
| 20260901013026 | 90 | 145 | 4.0 | 8.0 | 0.00 | 0.00 | 0.00 | 41 | 1009.3 |
| 20260901011535 | 91 | 161 | 5.0 | 9.0 | 0.00 | 0.00 | 0.00 | 39 | 1009.2 |
| 20260901010024 | 92 | 187 | 5.0 | 8.0 | 0.00 | 0.00 | 0.00 | 38 | 1009.0 |
| 20260901004524 | 94 | 161 | 4.0 | 9.0 | 0.00 | 0.00 | 0.00 | 37 | 1009.0 |
| 20260901003023 | 95 | 172 | 6.0 | 10.0 | 0.00 | 0.00 | 0.00 | 35 | 1009.2 |
| 20260901001526 | 96 | 156 | 5.0 | 9.0 | 0.00 | 0.00 | 0.00 | 33 | 1009.0 |
| 20260901000021 | 97 | 169 | 4.0 | 11.0 | 0.00 | 0.00 | 0.00 | 32 | 1009.0 |
| 20260831234521 | 98 | 136 | 6.0 | 11.0 | 0.00 | 0.00 | 0.00 | 31 | 1009.2 |
| 20260831233035 | 98 | 186 | 8.0 | 15.0 | 0.00 | 0.00 | 0.00 | 30 | 1009.2 |
| 20260831231521 | 99 | 149 | 8.0 | 16.0 | 0.00 | 0.00 | 0.00 | 29 | 1009.3 |
| 20260831230019 | 99 | 183 | 5.0 | 14.0 | 0.00 | 0.00 | 0.00 | 29 | 1009.2 |
| 20260831224519 | 100 | 172 | 6.0 | 14.0 | 0.00 | 0.00 | 0.00 | 28 | 1009.2 |
| 20260831223019 | 101 | 202 | 6.0 | 12.0 | 0.00 | 0.00 | 0.00 | 28 | 1009.3 |
| 20260831221518 | 100 | 205 | 5.0 | 15.0 | 0.00 | 0.00 | 0.00 | 27 | 1009.4 |
| 20260831220022 | 100 | 167 | 9.0 | 13.0 | 0.00 | 0.00 | 0.00 | 28 | 1009.4 |
| 20260831214518 | 101 | 222 | 8.0 | 16.0 | 0.00 | 0.00 | 0.00 | 28 | 1009.7 |
| 20260831213029 | 101 | 252 | 9.0 | 14.0 | 0.00 | 0.00 | 0.00 | 27 | 1009.7 |
| 20260831211516 | 101 | 241 | 10.0 | 18.0 | 0.00 | 0.00 | 0.00 | 27 | 1009.6 |
| 20260831210020 | 101 | 234 | 9.0 | 20.0 | 0.00 | 0.00 | 0.00 | 26 | 1009.7 |
| 20260831204515 | 101 | 211 | 9.0 | 20.0 | 0.00 | 0.00 | 0.00 | 27 | 1009.8 |
| 20260831203013 | 100 | 160 | 11.0 | 22.0 | 0.00 | 0.00 | 0.00 | 26 | 1009.8 |
| 20260831201516 | 100 | 175 | 7.0 | 25.0 | 0.00 | 0.00 | 0.00 | 28 | 1010.0 |
| 20260831200021 | 101 | 186 | 9.0 | 16.0 | 0.00 | 0.00 | 0.00 | 28 | 1010.1 |
| 20260831194522 | 100 | 162 | 9.0 | 18.0 | 0.00 | 0.00 | 0.00 | 29 | 1010.4 |
| 20260831193011 | 100 | 182 | 9.0 | 22.0 | 0.00 | 0.00 | 0.00 | 30 | 1010.6 |